SVFLIR Weather Reports


Display with metric or nautical units.
time (UTC)temp
F
wind
direction
speed
MPH
gust
MPH
rain 1hr
in
rain 24hr
in
rain mn
in
humidity
%
barometer
mb
20260904162536 87 150 7.0 13.0 0.00 0.00 0.00 100 1009.4
20260904162255 87 189 5.0 15.0 0.00 0.00 0.00 100 1009.4
20260904161535 87 243 6.0 15.0 0.00 0.00 0.00 100 1009.4
20260904161034 87 205 9.0 15.0 0.00 0.00 0.00 100 1009.4
20260904160752 87 208 7.0 13.0 0.00 0.00 0.00 100 1009.4
20260904160033 87 165 8.0 13.0 0.00 0.00 0.00 100 1009.4
20260904155532 87 174 7.0 13.0 0.00 0.00 0.00 100 1009.4
20260904155032 86 220 8.0 14.0 0.00 0.00 0.00 100 1009.4
20260904154531 86 194 7.0 14.0 0.00 0.00 0.00 100 1009.4
20260904154030 85 174 9.0 14.0 0.00 0.00 0.00 100 1009.4
20260904153530 84 198 9.0 14.0 0.00 0.00 0.00 100 1009.4
20260904153029 85 150 7.0 14.0 0.00 0.00 0.00 100 1009.4
20260904152528 84 153 6.0 14.0 0.00 0.00 0.00 100 1009.4
20260904152028 84 157 9.0 14.0 0.00 0.00 0.00 100 1009.4
20260904151528 83 168 11.0 16.0 0.00 0.00 0.00 100 1009.4
20260904151027 83 195 10.0 16.0 0.00 0.00 0.00 100 1009.4
20260904150526 83 136 9.0 16.0 0.00 0.00 0.00 100 1009.4
20260904150026 83 163 8.0 14.0 0.00 0.00 0.00 100 1009.4
20260904145525 83 167 8.0 14.0 0.00 0.00 0.00 100 1009.4
20260904145024 82 178 8.0 14.0 0.00 0.00 0.00 100 1009.4
20260904144747 82 137 9.0 17.0 0.00 0.00 0.00 100 1009.4
20260904144023 82 181 6.0 17.0 0.00 0.00 0.00 100 1009.4
20260904143523 82 157 11.0 17.0 0.00 0.00 0.00 100 1009.4
20260904143022 82 174 7.0 14.0 0.00 0.00 0.00 100 1009.4
20260904142743 81 163 9.0 14.0 0.00 0.00 0.00 100 1009.4
20260904142021 81 165 8.0 14.0 0.00 0.00 0.00 100 1009.4
20260904141520 78 157 10.0 14.0 0.00 0.00 0.00 100 1009.4
20260904141020 80 147 10.0 12.0 0.00 0.00 0.00 100 1009.4
20260904140519 79 160 7.0 11.0 0.00 0.00 0.00 100 1009.4
20260904140019 80 160 6.0 10.0 0.00 0.00 0.00 100 1009.4
20260904135518 79 181 6.0 10.0 0.00 0.00 0.00 100 1009.4
20260904135017 79 144 7.0 9.0 0.00 0.00 0.00 100 1009.4
20260904134738 76 160 5.0 8.0 0.00 0.00 0.00 100 1009.4
20260904134016 76 164 5.0 7.0 0.00 0.00 0.00 100 1009.4
20260904133515 77 150 3.0 5.0 0.00 0.00 0.00 100 1009.4
20260904133014 76 170 2.0 5.0 0.00 0.00 0.00 100 1009.4
20260904132515 77 139 3.0 5.0 0.00 0.00 0.00 100 1009.4
20260904132234 76 125 3.0 5.0 0.00 0.00 0.00 100 1009.4
20260904131736 76 126 3.0 5.0 0.00 0.00 0.00 100 1009.4
20260904131013 76 123 3.0 5.0 0.00 0.00 0.00 100 1009.4
20260904130512 76 149 2.0 5.0 0.00 0.00 0.00 100 1009.4
20260904130011 76 144 1.0 7.0 0.00 0.00 0.00 100 1009.4
20260904125510 78 137 3.0 7.0 0.00 0.00 0.00 100 1009.4
20260904125010 76 147 4.0 7.0 0.00 0.00 0.00 100 1009.4
20260904124733 76 150 4.0 7.0 0.00 0.00 0.00 100 1009.4
20260904124008 76 156 5.0 7.0 0.00 0.00 0.00 100 1009.4
20260904123730 76 163 5.0 7.0 0.00 0.00 0.00 100 1009.4
20260904123008 76 165 5.0 6.0 0.00 0.00 0.00 100 1009.4
20260904122727 77 153 3.0 6.0 0.00 0.00 0.00 100 1009.4
20260904122006 76 144 4.0 6.0 0.00 0.00 0.00 100 1009.4
20260904121505 75 140 3.0 5.0 0.00 0.00 0.00 100 1009.4
20260904121225 74 142 3.0 5.0 0.00 0.00 0.00 100 1009.4
20260904120505 73 113 0.0 0.0 0.00 0.00 0.00 100 1009.4
20260904115959 74 113 0.0 0.0 0.00 0.00 0.00 100 1009.4
20260904115439 74 113 0.0 0.0 0.00 0.00 0.00 100 1009.4
20260904115142 75 113 0.0 0.0 0.00 0.00 0.00 100 1009.4
20260904114415 75 113 0.0 0.0 0.00 0.00 0.00 100 1009.4
20260904113905 76 113 0.0 0.0 0.00 0.00 0.00 100 1009.4
20260904113337 77 113 0.0 0.0 0.00 0.00 0.00 100 1009.4
20260904112812 77 113 0.0 0.0 0.00 0.00 0.00 100 1009.4
20260904112311 74 113 0.0 0.0 0.00 0.00 0.00 100 1009.4
20260904112024 72 113 0.0 0.0 0.00 0.00 0.00 100 1009.4
20260904111527 73 113 0.0 0.0 0.00 0.00 0.00 100 1009.4
20260904110756 74 113 0.0 0.0 0.00 0.00 0.00 100 1009.4
20260904110255 74 113 0.0 0.0 0.00 0.00 0.00 100 1009.4
20260904110017 75 113 0.0 0.0 0.00 0.00 0.00 100 1009.4
20260904105250 75 113 0.0 0.0 0.00 0.00 0.00 100 1009.4
20260904104948 74 113 0.0 0.0 0.00 0.00 0.00 100 1009.4
20260904104200 75 113 0.0 0.0 0.00 0.00 0.00 100 1009.4
20260904103648 75 113 0.0 0.0 0.00 0.00 0.00 100 1009.4
20260904103120 76 113 0.0 0.0 0.00 0.00 0.00 100 1009.4
20260904102815 76 113 0.0 0.0 0.00 0.00 0.00 100 1009.4
20260904102050 76 113 0.0 0.0 0.00 0.00 0.00 100 1009.4
20260904101546 77 113 0.0 0.0 0.00 0.00 0.00 100 1009.4
20260904101045 76 113 0.0 0.0 0.00 0.00 0.00 100 1009.4
20260904100537 77 113 0.0 0.0 0.00 0.00 0.00 100 1009.4
20260904100011 76 113 0.0 0.0 0.00 0.00 0.00 100 1009.4
20260904095501 76 113 0.0 0.0 0.00 0.00 0.00 100 1009.4
20260904094950 76 113 0.0 0.0 0.00 0.00 0.00 100 1009.4
20260904094659 75 113 0.0 0.0 0.00 0.00 0.00 100 1009.4
20260904093935 76 113 0.0 0.0 0.00 0.00 0.00 100 1009.4
20260904093429 78 113 0.0 3.0 0.00 0.00 0.00 100 1009.4
20260904092929 79 113 0.0 5.0 0.00 0.00 0.00 100 1009.4
20260904091916 79 160 3.0 5.0 0.00 0.00 0.00 100 1009.4
20260904091643 80 161 2.0 5.0 0.00 0.00 0.00 100 1009.4
20260904090910 77 160 3.0 5.0 0.00 0.00 0.00 100 1009.4
20260904090409 77 154 0.0 4.0 0.00 0.00 0.00 100 1009.4
20260904085908 72 150 0.0 4.0 0.00 0.00 0.00 100 1009.4
20260904085620 76 164 2.0 5.0 0.00 0.00 0.00 100 1009.4
20260904085120 77 165 2.0 5.0 0.00 0.00 0.00 100 1009.4
20260904084617 80 196 3.0 6.0 0.00 0.00 0.00 100 1009.4
20260904084119 78 168 4.0 6.0 0.00 0.00 0.00 100 1009.4
20260904083358 77 150 5.0 6.0 0.00 0.00 0.00 100 1009.4
20260904082857 78 157 4.0 6.0 0.00 0.00 0.00 100 1009.4
20260904082619 81 142 3.0 6.0 0.00 0.00 0.00 100 1009.4
20260904081856 83 139 4.0 7.0 0.00 0.00 0.00 100 1009.4
20260904081617 83 168 4.0 7.0 0.00 0.00 0.00 100 1009.4
20260904080854 83 191 5.0 7.0 0.00 0.00 0.00 100 1009.4
20260904080354 83 165 4.0 7.0 0.00 0.00 0.00 100 1009.4
20260904075853 85 161 4.0 8.0 0.00 0.00 0.00 100 1009.4
20260904075352 85 194 4.0 8.0 0.00 0.00 0.00 100 1009.4
20260904074853 85 158 4.0 9.0 0.00 0.00 0.00 100 1009.4
20260904074352 85 182 5.0 9.0 0.00 0.00 0.00 100 1009.4
20260904074112 85 180 7.0 9.0 0.00 0.00 0.00 100 1009.4
20260904072849 85 196 3.0 9.0 0.00 0.00 0.00 100 1009.4
20260904072349 85 167 4.0 13.0 0.00 0.00 0.00 100 1009.4
20260904071849 86 217 4.0 13.0 0.00 0.00 0.00 100 1009.4
20260904071348 86 172 7.0 13.0 0.00 0.00 0.00 100 1009.4
20260904070847 86 191 5.0 11.0 0.00 0.00 0.00 100 1009.4
20260904070347 86 198 6.0 10.0 0.00 0.00 0.00 100 1009.4
20260904065846 86 188 6.0 11.0 0.00 0.00 0.00 100 1009.4
20260904065345 86 185 6.0 11.0 0.00 0.00 0.00 100 1009.4
20260904064844 86 201 7.0 10.0 0.00 0.00 0.00 100 1009.4
20260904064344 86 177 6.0 11.0 0.00 0.00 0.00 100 1009.4
20260904063844 87 188 5.0 11.0 0.00 0.00 0.00 100 1009.4
20260904063343 86 177 6.0 11.0 0.00 0.00 0.00 100 1009.4
20260904062842 87 181 7.0 13.0 0.00 0.00 0.00 100 1009.4
20260904062340 87 149 8.0 13.0 0.00 0.00 0.00 100 1009.4
20260904061839 87 147 6.0 11.0 0.00 0.00 0.00 100 1009.4
20260904061339 87 147 7.0 11.0 0.00 0.00 0.00 100 1009.4
20260904060838 87 161 7.0 11.0 0.00 0.00 0.00 100 1009.4
20260904060337 87 154 8.0 11.0 0.00 0.00 0.00 100 1009.4
20260904055837 87 187 6.0 13.0 0.00 0.00 0.00 100 1009.4
20260904055600 87 180 8.0 13.0 0.00 0.00 0.00 100 1009.4
20260904054835 87 153 7.0 12.0 0.00 0.00 0.00 100 1009.4
20260904054334 85 196 5.0 9.0 0.00 0.00 0.00 100 1009.4
20260904053835 85 194 5.0 9.0 0.00 0.00 0.00 100 1009.4
20260904053334 85 199 3.0 7.0 0.00 0.00 0.00 100 1009.4
20260904053055 83 196 2.0 7.0 0.00 0.00 0.00 100 1009.4
20260904052559 83 147 3.0 7.0 0.00 0.00 0.00 100 1009.4
20260904051832 82 149 4.0 7.0 0.00 0.00 0.00 100 1009.4
20260904051331 82 149 0.0 6.0 0.00 0.00 0.00 100 1009.4
20260904050814 83 149 0.0 6.0 0.00 0.00 0.00 100 1009.4
20260904050529 83 139 0.0 3.0 0.00 0.00 0.00 100 1009.4
20260904045756 83 178 0.0 2.0 0.00 0.00 0.00 100 1009.4
20260904045254 83 178 0.0 3.0 0.00 0.00 0.00 100 1009.4
20260904044749 85 177 0.0 4.0 0.00 0.00 0.00 100 1009.4
20260904044457 85 182 0.0 4.0 0.00 0.00 0.00 100 1009.4
20260904043948 85 215 0.0 6.0 0.00 0.00 0.00 100 1009.4
20260904043216 86 199 0.0 6.0 0.00 0.00 0.00 100 1009.4
20260904042711 86 182 4.0 6.0 0.00 0.00 0.00 100 1009.4
20260904042210 86 127 0.0 8.0 0.00 0.00 0.00 100 1009.4
20260904041710 86 129 1.0 8.0 0.00 0.00 0.00 100 1009.4
20260904041159 86 192 4.0 8.0 0.00 0.00 0.00 100 1009.4
20260904040659 86 181 2.0 9.0 0.00 0.00 0.00 100 1009.4
20260904040153 86 192 2.0 9.0 0.00 0.00 0.00 100 1009.4
20260904035152 86 187 5.0 10.0 0.00 0.00 0.00 100 1009.4
20260904034653 85 191 7.0 10.0 0.00 0.00 0.00 100 1009.4
20260904034150 85 149 4.0 11.0 0.00 0.00 0.00 100 1009.4
20260904033651 85 177 6.0 11.0 0.00 0.00 0.00 100 1009.4
20260904033150 85 185 7.0 12.0 0.00 0.00 0.00 100 1009.4
20260904032649 86 188 6.0 14.0 0.00 0.00 0.00 100 1009.4
20260904032149 85 171 7.0 14.0 0.00 0.00 0.00 100 1009.4
20260904031648 86 180 6.0 14.0 0.00 0.00 0.00 100 1009.4
20260904031147 86 154 7.0 15.0 0.00 0.00 0.00 100 1009.4
20260904030646 88 174 9.0 16.0 0.00 0.00 0.00 100 1009.4
20260904030146 88 177 10.0 16.0 0.00 0.00 0.00 100 1009.4
20260904025904 88 182 9.0 15.0 0.00 0.00 0.00 100 1009.4
20260904025145 88 164 10.0 16.0 0.00 0.00 0.00 100 1009.4
20260904024644 89 167 8.0 20.0 0.00 0.00 0.00 100 1009.4
20260904024144 89 139 10.0 20.0 0.00 0.00 0.00 100 1009.4
20260904023643 90 177 10.0 19.0 0.00 0.00 0.00 100 1009.4
20260904023407 91 161 6.0 9.0 0.00 0.00 0.00 100 1009.4
20260904022642 91 170 5.0 7.0 0.00 0.00 0.00 100 1009.4
20260904022141 91 172 3.0 6.0 0.00 0.00 0.00 100 1009.4
20260904021640 91 168 4.0 6.0 0.00 0.00 0.00 100 1009.4
20260904021140 91 170 3.0 6.0 0.00 0.00 0.00 100 1009.4
20260904020900 92 167 0.0 4.0 0.00 0.00 0.00 100 1009.4
20260904020122 92 167 0.0 8.0 0.00 0.00 0.00 100 1009.4
20260904015841 92 177 4.0 8.0 0.00 0.00 0.00 100 1009.4
20260904014617 92 229 5.0 9.0 0.00 0.00 0.00 100 1009.4
20260904014117 92 196 3.0 6.0 0.00 0.00 0.00 100 1009.4
20260904013115 92 255 3.0 9.0 0.00 0.00 0.00 100 1009.4
20260904012614 93 172 0.0 6.0 0.00 0.00 0.00 100 1009.4
20260904012113 93 265 0.0 6.0 0.00 0.00 0.00 100 1009.4
20260904011613 93 264 3.0 4.0 0.00 0.00 0.00 100 1009.4
20260904011112 93 123 0.0 4.0 0.00 0.00 0.00 100 1009.4
20260904010611 93 136 0.0 6.0 0.00 0.00 0.00 100 1009.4
20260904010110 93 185 0.0 6.0 0.00 0.00 0.00 100 1009.4
20260904005602 94 216 1.0 5.0 0.00 0.00 0.00 100 1009.4
20260904005101 94 257 0.0 5.0 0.00 0.00 0.00 100 1009.4
20260904004548 95 257 0.0 6.0 0.00 0.00 0.00 100 1009.4
20260904004305 95 241 3.0 10.0 0.00 0.00 0.00 100 1009.4
20260904003546 94 279 0.0 10.0 0.00 0.00 0.00 100 1009.4
20260904003046 94 265 3.0 9.0 0.00 0.00 0.00 100 1009.4
20260904002545 94 331 5.0 6.0 0.00 0.00 0.00 100 1009.4
20260904002044 94 300 3.0 10.0 0.00 0.00 0.00 100 1009.4
20260904001543 94 322 4.0 10.0 0.00 0.00 0.00 100 1009.4
20260904001042 94 237 6.0 10.0 0.00 0.00 0.00 100 1009.4
20260904000542 94 261 3.0 11.0 0.00 0.00 0.00 100 1009.4
20260904000304 94 185 1.0 11.0 0.00 0.00 0.00 100 1009.4
20260903235533 95 222 5.0 9.0 0.00 0.00 0.00 100 1009.4
20260903235032 94 203 5.0 7.0 0.00 0.00 0.00 100 1009.4
20260903234531 94 178 0.0 7.0 0.00 0.00 0.00 100 1009.4
20260903234031 95 223 4.0 11.0 0.00 0.00 0.00 100 1009.4
20260903233530 95 174 3.0 11.0 0.00 0.00 0.00 100 1009.4
20260903233246 95 244 7.0 11.0 0.00 0.00 0.00 100 1009.4
20260903232525 95 288 5.0 10.0 0.00 0.00 0.00 100 1009.4
20260903232025 95 354 0.0 14.0 0.00 0.00 0.00 100 1009.4
20260903231746 95 316 3.0 14.0 0.00 0.00 0.00 100 1009.4
20260903231023 95 172 8.0 14.0 0.00 0.00 0.00 100 1009.4
20260903230523 95 172 0.0 13.0 0.00 0.00 0.00 100 1009.4
20260903230022 95 234 7.0 13.0 0.00 0.00 0.00 100 1009.4
20260903225747 94 220 10.0 12.0 0.00 0.00 0.00 100 1009.4
20260903224508 97 241 6.0 13.0 0.00 0.00 0.00 100 1009.4
20260903224007 97 223 8.0 13.0 0.00 0.00 0.00 100 1009.4
20260903223507 95 236 2.0 9.0 0.00 0.00 0.00 100 1009.4
20260903223006 94 286 4.0 13.0 0.00 0.00 0.00 100 1009.4
20260903222459 94 274 6.0 13.0 0.00 0.00 0.00 100 1009.4
20260903221959 93 234 5.0 11.0 0.00 0.00 0.00 100 1009.4
20260903221458 94 247 4.0 13.0 0.00 0.00 0.00 100 1009.4
20260903220957 95 187 6.0 14.0 0.00 0.00 0.00 100 1009.4
20260903215956 95 286 3.0 12.0 0.00 0.00 0.00 100 1009.4
20260903215452 97 310 6.0 12.0 0.00 0.00 0.00 100 1009.4
20260903214951 97 234 8.0 12.0 0.00 0.00 0.00 100 1009.4
20260903214450 96 175 0.0 16.0 0.00 0.00 0.00 100 1009.4
20260903213936 97 227 5.0 16.0 0.00 0.00 0.00 100 1009.4
20260903213435 95 236 4.0 15.0 0.00 0.00 0.00 100 1009.4
20260903212934 95 243 13.0 15.0 0.00 0.00 0.00 100 1009.4
20260903212433 96 199 10.0 15.0 0.00 0.00 0.00 100 1009.4
20260903212159 95 189 4.0 19.0 0.00 0.00 0.00 100 1009.4
20260903211432 93 226 9.0 19.0 0.00 0.00 0.00 100 1009.4
20260903210931 93 229 9.0 18.0 0.00 0.00 0.00 100 1009.4
20260903210432 95 262 3.0 14.0 0.00 0.00 0.00 100 1009.4
20260903205931 95 199 9.0 16.0 0.00 0.00 0.00 100 1009.4
20260903205430 94 234 8.0 16.0 0.00 0.00 0.00 100 1009.4
20260903205153 95 234 9.0 16.0 0.00 0.00 0.00 100 1009.4
20260903204429 97 192 5.0 18.0 0.00 0.00 0.00 100 1009.4
20260903203928 95 215 4.0 19.0 0.00 0.00 0.00 100 1009.4
20260903203427 95 225 5.0 19.0 0.00 0.00 0.00 100 1009.4
20260903202927 97 258 3.0 10.0 0.00 0.00 0.00 100 1009.4
20260903202426 94 330 2.0 16.0 0.00 0.00 0.00 100 1009.4
20260903201925 94 251 4.0 16.0 0.00 0.00 0.00 100 1009.4
20260903201425 95 198 11.0 16.0 0.00 0.00 0.00 100 1009.4
20260903201144 95 220 5.0 11.0 0.00 0.00 0.00 100 1009.4
20260903200424 92 203 2.0 12.0 0.00 0.00 0.00 100 1009.4
20260903200140 92 177 6.0 13.0 0.00 0.00 0.00 100 1009.4
20260903195423 93 184 6.0 17.0 0.00 0.00 0.00 100 1009.4
20260903194920 92 184 9.0 17.0 0.00 0.00 0.00 100 1009.4
20260903194419 93 157 11.0 16.0 0.00 0.00 0.00 100 1009.4
20260903193918 93 94 2.0 12.0 0.00 0.00 0.00 100 1009.4
20260903193418 94 203 6.0 12.0 0.00 0.00 0.00 100 1009.4
20260903193142 91 150 9.0 12.0 0.00 0.00 0.00 100 1009.4
20260903191916 92 246 3.0 15.0 0.00 0.00 0.00 100 1009.4
20260903191634 93 189 6.0 15.0 0.00 0.00 0.00 100 1009.4
20260903191129 92 194 10.0 15.0 0.00 0.00 0.00 100 1009.4
20260903190410 93 191 5.0 12.0 0.00 0.00 0.00 100 1009.4
20260903185909 92 77 7.0 12.0 0.00 0.00 0.00 100 1009.4
20260903185632 90 156 9.0 11.0 0.00 0.00 0.00 100 1009.4
20260903184909 89 212 4.0 11.0 0.00 0.00 0.00 100 1009.4
20260903184408 89 199 4.0 10.0 0.00 0.00 0.00 100 1009.4
20260903184125 89 199 3.0 10.0 0.00 0.00 0.00 100 1009.4
20260903183406 91 229 8.0 12.0 0.00 0.00 0.00 100 1009.4
20260903182906 87 126 7.0 12.0 0.00 0.00 0.00 100 1009.4
20260903182405 90 122 4.0 9.0 0.00 0.00 0.00 100 1009.4
20260903181904 93 113 2.0 13.0 0.00 0.00 0.00 100 1009.4
20260903181402 92 189 4.0 13.0 0.00 0.00 0.00 100 1009.4
20260903181121 90 187 10.0 13.0 0.00 0.00 0.00 100 1009.4
20260903180401 92 158 1.0 10.0 0.00 0.00 0.00 100 1009.4
20260903175855 92 149 4.0 10.0 0.00 0.00 0.00 100 1009.4
20260903175349 90 160 6.0 11.0 0.00 0.00 0.00 100 1009.4
20260903174848 87 196 6.0 11.0 0.00 0.00 0.00 100 1009.4
20260903174614 87 151 2.0 11.0 0.00 0.00 0.00 100 1009.4
20260903173848 87 136 6.0 11.0 0.00 0.00 0.00 100 1009.4
20260903173347 86 118 7.0 11.0 0.00 0.00 0.00 100 1009.4
20260903172846 85 220 5.0 11.0 0.00 0.00 0.00 100 1009.4
20260903172346 87 185 5.0 7.0 0.00 0.00 0.00 100 1009.4
20260903171845 87 167 4.0 8.0 0.00 0.00 0.00 100 1009.4
20260903171344 87 237 0.0 9.0 0.00 0.00 0.00 100 1009.4
20260903171053 87 253 5.0 9.0 0.00 0.00 0.00 100 1009.4
20260903170335 87 270 1.0 9.0 0.00 0.00 0.00 100 1009.4
20260903165834 86 157 3.0 9.0 0.00 0.00 0.00 100 1009.4
20260903165334 85 246 1.0 7.0 0.00 0.00 0.00 100 1009.4
20260903164833 83 126 2.0 6.0 0.00 0.00 0.00 100 1009.4
20260903164330 84 239 0.0 6.0 0.00 0.00 0.00 100 1009.4
20260903163831 83 285 1.0 8.0 0.00 0.00 0.00 100 1009.4
20260903163330 82 219 2.0 9.0 0.00 0.00 0.00 100 1009.4
20260903162829 82 205 6.0 9.0 0.00 0.00 0.00 100 1009.4